Location: La Brionne
(46.1728°N, 1.7849°E)
Time: 02:36:41
(UTC+00:00)

Cosmos 2219 Rocket - Pass Details

Date: 27 October 2021
Orbit: 827 x 848 km, 71.0° (Epoch: 26 November)

Event Time Altitude Azimuth Distance (km) Brightness Sun altitude
Rises 19:03:47 0° 205° (SSW) 3,354 5.6 -24.4°
Reaches altitude 10° 19:06:12 10° 206° (SSW) 2,426 4.8 -24.8°
Maximum altitude 19:11:46 87° 294° (WNW) 839 2.1 -25.8°
Enters shadow 19:13:46 42° 23° (NNE) 1,172 2.8 -26.1°
